Location: Dana
(41.8364°N, 106.7042°W)
Time: 02:40:53
(UTC+00:00)

Altair - Pass Details

Date: 19 May 2026
Orbit: 1501 x 1682 km, 47.2° (Epoch: 6 June)

Event Time Altitude Azimuth Distance (km) Brightness Sun altitude
Rises 13:07:38 0° 267° (W) 4,843 9.5 13.9°
Reaches altitude 10° 13:10:46 10° 270° (W) 3,879 9.1 14.4°
Maximum altitude 13:20:43 67° 352° (N) 1,792 8.2 16.2°
Drops below altitude 10° 13:30:52 10° 75° (ENE) 3,947 12.2 18.1°
Sets 13:34:06 0° 78° (ENE) 4,932 11.9 18.7°
